FW0896 Weather Reports


time (UTC)temp
F
wind
direction
speed
knots
gust
knots
rain 1hr
in
rain 24hr
in
rain mn
in
humidity
%
barometer
mb
20220629024502 74 17 1.7 3.5 0.00 0.03 0.03 62 1016.3
20220629023005 74 2 1.7 3.5 0.00 0.03 0.03 61 1016.0
20220629021504 74 2 0.9 3.5 0.00 0.03 0.03 61 1016.0
20220629020001 74 2 2.6 4.3 0.00 0.03 0.03 61 1015.7
20220629014602 75 353 1.7 2.6 0.00 0.03 0.03 60 1015.7
20220629013200 76 353 1.7 3.5 0.00 0.03 0.03 59 1015.6
20220629011559 77 347 2.6 4.3 0.00 0.03 0.03 57 1015.6
20220629010059 78 354 2.6 6.1 0.00 0.03 0.03 56 1015.5
20220629004600 79 347 3.5 7.0 0.00 0.03 0.03 54 1015.3
20220629003058 81 335 4.3 7.0 0.00 0.03 0.03 51 1015.2
20220629001557 81 335 4.3 7.0 0.00 0.03 0.03 51 1015.0
20220629000058 81 330 4.3 7.0 0.00 0.03 0.03 50 1015.0
20220628234604 82 330 4.3 7.8 0.00 0.03 0.03 48 1015.0
20220628233055 82 319 4.3 7.0 0.00 0.03 0.03 48 1014.8
20220628231604 83 312 2.6 6.1 0.00 0.03 0.03 48 1014.8
20220628230055 83 328 3.5 7.0 0.00 0.03 0.03 49 1014.8
20220628224555 84 305 2.6 5.2 0.00 0.03 0.03 48 1014.7
20220628223052 84 297 1.7 4.3 0.00 0.03 0.03 49 1014.8
20220628221557 84 318 3.5 5.2 0.00 0.03 0.03 49 1014.9
20220628220051 83 316 3.5 6.1 0.00 0.03 0.03 50 1015.0
20220628214550 84 286 3.5 6.1 0.00 0.03 0.03 48 1015.1
20220628213100 84 295 3.5 7.0 0.00 0.03 0.03 49 1015.1
20220628211549 84 255 1.7 5.2 0.00 0.03 0.03 50 1015.1
20220628210048 83 271 3.5 7.0 0.00 0.03 0.03 50 1015.0
20220628204613 83 248 4.3 9.6 0.00 0.03 0.03 51 1015.2
20220628203046 84 244 3.5 8.7 0.00 0.03 0.03 51 1015.3
20220628201551 83 247 6.1 16.5 0.00 0.03 0.03 49 1015.4
20220628200041 83 238 7.0 15.6 0.00 0.03 0.03 47 1015.5
20220628194537 83 219 8.7 13.9 0.00 0.03 0.03 48 1015.8
20220628193035 81 205 7.8 15.6 0.00 0.03 0.03 48 1016.1
20220628191534 82 214 7.0 17.4 0.00 0.03 0.03 47 1016.3
20220628190035 82 229 5.2 20.0 0.00 0.03 0.03 46 1016.5
20220628184531 82 198 8.7 18.2 0.00 0.03 0.03 45 1016.5
20220628183028 81 222 12.2 18.2 0.00 0.03 0.03 46 1016.8
20220628181532 80 186 11.3 19.1 0.00 0.03 0.03 47 1016.7
20220628180026 80 221 9.6 19.1 0.00 0.03 0.03 48 1016.8
20220628174524 80 240 11.3 20.9 0.00 0.03 0.03 48 1016.7
20220628173023 79 225 10.4 18.2 0.00 0.03 0.03 49 1016.7
20220628171525 78 212 10.4 16.5 0.00 0.03 0.03 55 1016.9
20220628170016 76 168 6.1 13.0 0.00 0.03 0.03 58 1017.3
20220628164511 76 264 7.0 13.9 0.00 0.03 0.03 58 1017.6
20220628163012 75 250 5.2 11.3 0.00 0.03 0.03 57 1017.9
20220628161508 74 188 3.5 9.6 0.00 0.03 0.03 62 1018.2
20220628160003 72 180 2.6 8.7 0.00 0.03 0.03 67 1018.3
20220628154600 70 167 1.7 7.8 0.00 0.03 0.03 70 1018.8
20220628153053 69 214 1.7 5.2 0.00 0.03 0.03 71 1019.0
20220628151549 67 176 1.7 7.0 0.00 0.03 0.03 74 1019.0
20220628150051 66 180 2.6 6.1 0.00 0.03 0.03 74 1019.0
20220628144545 66 180 2.6 7.0 0.00 0.03 0.03 76 1019.4
20220628143044 64 192 2.6 6.1 0.00 0.03 0.03 79 1019.7
20220628141541 63 188 2.6 5.2 0.01 0.03 0.03 82 1019.9
20220628140039 62 237 5.2 8.7 0.03 0.03 0.03 84 1020.3
20220628134539 61 215 3.5 5.2 0.03 0.03 0.03 84 1020.4
20220628133038 60 221 2.6 4.3 0.03 0.03 0.03 85 1020.5
20220628131535 61 235 2.6 8.7 0.02 0.02 0.02 81 1020.5
20220628130031 64 225 4.3 7.8 0.00 0.00 0.00 71 1020.3
20220628124533 65 206 3.5 7.0 0.00 0.00 0.00 67 1019.8
20220628123029 65 205 4.3 6.1 0.00 0.00 0.00 67 1019.8
20220628121529 64 206 5.2 10.4 0.00 0.00 0.00 68 1019.9
20220628120030 63 233 6.1 10.4 0.00 0.00 0.00 69 1019.7
20220628114536 63 218 6.1 12.2 0.00 0.00 0.00 69 1019.7
20220628113026 62 229 6.1 10.4 0.00 0.00 0.00 69 1019.6
20220628111524 62 221 7.0 11.3 0.00 0.00 0.00 69 1019.6
20220628110023 62 227 7.0 10.4 0.00 0.00 0.00 69 1019.6
20220628104523 62 252 7.0 9.6 0.00 0.00 0.00 68 1019.6
20220628103022 62 214 6.1 8.7 0.00 0.00 0.00 68 1019.6
20220628101531 62 226 7.0 9.6 0.00 0.00 0.00 68 1019.7
20220628100020 62 240 6.1 11.3 0.00 0.00 0.00 68 1019.6
20220628094528 62 229 7.0 10.4 0.00 0.00 0.00 69 1019.7
20220628093016 62 260 6.1 9.6 0.00 0.00 0.00 68 1019.7
20220628091515 62 198 5.2 9.6 0.00 0.00 0.00 67 1019.6
20220628090014 62 229 5.2 9.6 0.00 0.00 0.00 67 1019.7
20220628084511 63 200 5.2 9.6 0.00 0.00 0.00 66 1019.7
20220628083008 63 240 6.1 8.7 0.00 0.00 0.00 66 1019.8
20220628081506 63 221 6.1 8.7 0.00 0.00 0.00 65 1019.8
20220628080009 64 221 5.2 7.8 0.00 0.00 0.00 64 1019.8
20220628074501 64 227 4.3 7.0 0.00 0.00 0.00 62 1019.8
20220628073059 65 229 4.3 7.8 0.00 0.00 0.00 61 1019.8
20220628071559 65 216 4.3 7.0 0.00 0.00 0.00 60 1019.8
20220628070058 64 233 2.6 5.2 0.00 0.00 0.00 61 1019.8
20220628064603 65 233 2.6 6.1 0.00 0.00 0.00 61 1020.0
20220628063059 65 207 1.7 5.2 0.00 0.00 0.00 60 1020.1
20220628061553 65 240 2.6 6.1 0.00 0.00 0.00 61 1020.2
20220628060050 65 198 2.6 4.3 0.00 0.00 0.00 60 1020.4
20220628054551 65 198 2.6 6.1 0.00 0.00 0.00 60 1020.5
20220628053049 65 221 3.5 6.1 0.00 0.00 0.00 59 1020.5
20220628051547 66 200 2.6 6.1 0.00 0.00 0.00 57 1020.6
20220628050041 67 211 1.7 5.2 0.00 0.00 0.00 56 1020.6
20220628044540 67 210 2.6 4.3 0.00 0.00 0.00 56 1020.6
20220628043040 67 205 2.6 5.2 0.00 0.00 0.00 56 1020.8
20220628041548 68 221 1.7 5.2 0.00 0.00 0.00 55 1020.8
20220628040047 68 203 1.7 3.5 0.00 0.00 0.00 54 1020.9
20220628034540 68 209 1.7 3.5 0.00 0.00 0.00 54 1020.8
20220628033037 70 238 1.7 6.1 0.00 0.00 0.00 52 1020.9
20220628031537 69 215 1.7 3.5 0.00 0.00 0.00 53 1020.9
20220628030136 70 226 1.7 4.3 0.00 0.00 0.00 54 1020.8